GAOFEN-11 01

Last updated on Thu Mar 05 2026 00:02:39 GMT+0000 (Coordinated Universal Time)

1 43585U 18063A 26063.64633616 .00013386 00000+0 22344-3 0 9993 2 43585 97.1429 130.9949 0004250 19.5629 340.5787 15.52061952424119
UTC large
Height (km)
Speed (km/s)
/
Latitude / Longitude
Inclination (degrees)
Orbital Period (minutes)
Azimuth
Elevation
Range (km)
Doppler Factor

Next 0 passes for location: London (51.5072 / 0.1276)

Sorry there are no passes over London.